200P/Larsen (2019)

Japanese version
Home page
Updated on October 22, 2018

---------------------------------------------------------------------

* Profile

* Pictures

* Orbital Elements

Epoch 2019 July 16.0 TT = JDT 2458680.5
T 2019 July 28.48934 TT                                 MPCW
q   3.2972276            (2000.0)            P               Q
n   0.08993063     Peri.  133.97689     +0.97520767     -0.14000564
a   4.9339826      Node   234.80210     +0.08846145     +0.95649156
e   0.3317310      Incl.   12.10567     +0.20284127     +0.25597328
P  10.96
From 517 observations 1997 Nov. 3-2018 Aug. 12, mean residual 0".6.

* Magnitudes Graph

        m1 = 0 + 5 log d + 30 log r

---------------------------------------------------------------------

The orbital elements are published on M.P.E.C. 2018-S50.
The magnitudes graphs are made with Comet for Windows.

---------------------------------------------------------------------

Copyright(C) Seiichi Yoshida (comet@aerith.net). All rights reserved.